Location: Wanzleben
(52.0609°N, 11.4408°E)
Time: 16:17:45
(UTC+00:00)

Cosmos 2034 Rocket - Pass Details

Date: 18 September 2020
Orbit: 957 x 1002 km, 82.9° (Epoch: 21 October)

Event Time Altitude Azimuth Distance (km) Brightness Sun altitude
Rises 18:55:06 0° 178° (S) 3,714 6.8 -14.9°
Reaches altitude 10° 18:57:37 10° 176° (S) 2,767 6.1 -15.2°
Maximum altitude 19:03:56 68° 95° (E) 1,073 4.0 -16.1°
Drops below altitude 10° 19:10:14 10° 14° (NNE) 2,769 6.5 -17.0°
Sets 19:12:46 0° 12° (NNE) 3,717 7.2 -17.3°
